GW1454 Weather Reports


Display with metric or nautical units.
time (UTC)temp
F
wind
direction
speed
MPH
gust
MPH
rain 1hr
in
rain 24hr
in
rain mn
in
humidity
%
barometer
mb
20260905191045 71 23 0.0 4.0 0.28 0.28 0.28 93 1012.1
20260905190546 71 277 2.0 3.0 0.28 0.28 0.28 93 1012.0
20260905185546 71 0 0.0 3.0 0.28 0.28 0.28 90 1011.5
20260905185045 71 110 0.0 4.0 0.28 0.28 0.28 89 1011.8
20260905184604 72 0 1.0 12.0 0.28 0.28 0.28 86 1012.3
20260905184045 74 96 2.0 22.0 0.28 0.28 0.28 83 1012.2
20260905183546 78 284 6.0 24.0 0.21 0.21 0.21 77 1012.9
20260905183058 87 133 7.0 24.0 0.00 0.00 0.00 65 1012.8
20260905182545 89 0 0.0 1.0 0.00 0.00 0.00 66 1011.6
20260905182046 90 0 0.0 2.0 0.00 0.00 0.00 65 1011.5
20260905181552 91 0 0.0 3.0 0.00 0.00 0.00 62 1011.8
20260905181050 91 0 0.0 4.0 0.00 0.00 0.00 59 1011.7
20260905180546 92 167 0.0 6.0 0.00 0.00 0.00 59 1011.8
20260905175545 94 94 2.0 8.0 0.00 0.00 0.00 56 1012.3
20260905175045 94 51 1.0 8.0 0.00 0.00 0.00 56 1012.2
20260905174605 94 157 1.0 4.0 0.00 0.00 0.00 57 1012.1
20260905174046 93 0 1.0 7.0 0.00 0.00 0.00 57 1012.1
20260905173546 94 136 1.0 7.0 0.00 0.00 0.00 56 1012.2
20260905173105 94 102 1.0 8.0 0.00 0.00 0.00 56 1012.4
20260905172555 94 179 3.0 8.0 0.00 0.00 0.00 55 1012.6
20260905172046 93 142 0.0 8.0 0.00 0.00 0.00 58 1012.8
20260905171554 93 73 3.0 8.0 0.00 0.00 0.00 57 1012.8
20260905171045 92 0 3.0 8.0 0.00 0.00 0.00 58 1013.0
20260905170545 92 120 4.0 8.0 0.00 0.00 0.00 58 1013.1
20260905165546 92 67 2.0 8.0 0.00 0.00 0.00 59 1013.2
20260905165045 91 132 3.0 8.0 0.00 0.00 0.00 61 1013.3
20260905164554 92 209 3.0 8.0 0.00 0.00 0.00 60 1013.2
20260905164046 92 119 3.0 8.0 0.00 0.00 0.00 59 1013.3
20260905163545 92 104 2.0 6.0 0.00 0.00 0.00 61 1013.2
20260905163056 92 124 2.0 6.0 0.00 0.00 0.00 60 1013.4
20260905162549 92 243 2.0 7.0 0.00 0.00 0.00 60 1013.4
20260905162047 92 0 2.0 7.0 0.00 0.00 0.00 61 1013.5
20260905161552 91 109 1.0 5.0 0.00 0.00 0.00 62 1013.6
20260905161045 91 182 1.0 7.0 0.00 0.00 0.00 63 1013.6
20260905160546 91 160 3.0 7.0 0.00 0.00 0.00 62 1013.6
20260905160104 91 184 1.0 6.0 0.00 0.00 0.00 63 1013.7
20260905155546 91 91 1.0 6.0 0.00 0.00 0.00 63 1013.7
20260905155044 90 99 1.0 8.0 0.00 0.00 0.00 62 1013.8
20260905154606 90 0 1.0 9.0 0.00 0.00 0.00 63 1013.8
20260905154049 89 70 2.0 9.0 0.00 0.00 0.00 63 1013.9
20260905153546 89 68 2.0 9.0 0.00 0.00 0.00 63 1013.9
20260905153053 89 144 1.0 9.0 0.00 0.00 0.00 64 1013.9
20260905152545 89 101 1.0 7.0 0.00 0.00 0.00 65 1013.8
20260905152045 88 164 2.0 9.0 0.00 0.00 0.00 66 1013.8
20260905151559 88 96 2.0 9.0 0.00 0.00 0.00 67 1013.9
20260905151045 88 67 2.0 9.0 0.00 0.00 0.00 66 1014.0
20260905150548 88 55 3.0 9.0 0.00 0.00 0.00 66 1014.0
20260905150105 87 0 2.0 9.0 0.00 0.00 0.00 67 1014.1
20260905145545 87 127 2.0 8.0 0.00 0.00 0.00 68 1014.2
20260905145045 87 0 1.0 8.0 0.00 0.00 0.00 70 1014.2
20260905144552 86 144 2.0 8.0 0.00 0.00 0.00 70 1014.2
20260905144046 86 126 3.0 6.0 0.00 0.00 0.00 70 1014.3
20260905143546 86 146 1.0 5.0 0.00 0.00 0.00 71 1014.2
20260905143105 86 111 1.0 5.0 0.00 0.00 0.00 72 1014.1
20260905142545 85 84 0.0 5.0 0.00 0.00 0.00 71 1014.1
20260905142045 85 55 2.0 4.0 0.00 0.00 0.00 72 1014.1
20260905141603 85 0 0.0 6.0 0.00 0.00 0.00 74 1014.0
20260905141045 85 92 1.0 6.0 0.00 0.00 0.00 73 1014.0
20260905140546 85 109 2.0 4.0 0.00 0.00 0.00 72 1013.9
20260905140104 84 124 0.0 4.0 0.00 0.00 0.00 73 1014.0
20260905135545 84 107 1.0 4.0 0.00 0.00 0.00 73 1013.9
20260905135044 84 80 2.0 4.0 0.00 0.00 0.00 75 1013.9
20260905134601 84 82 0.0 3.0 0.00 0.00 0.00 76 1013.9
20260905134046 83 99 0.0 4.0 0.00 0.00 0.00 77 1013.8
20260905133545 82 103 1.0 4.0 0.00 0.00 0.00 77 1014.1
20260905133056 82 81 0.0 4.0 0.00 0.00 0.00 78 1014.0
20260905132547 81 0 1.0 4.0 0.00 0.00 0.00 80 1013.9
20260905132046 80 0 1.0 2.0 0.00 0.00 0.00 81 1014.0
20260905131602 80 126 0.0 2.0 0.00 0.00 0.00 81 1014.2
20260905131046 80 0 0.0 1.0 0.00 0.00 0.00 80 1014.1
20260905130546 80 0 0.0 0.0 0.00 0.00 0.00 83 1014.2
20260905125545 79 0 0.0 1.0 0.00 0.00 0.00 82 1014.3
20260905125046 79 0 0.0 1.0 0.00 0.00 0.00 82 1014.3
20260905124603 79 0 0.0 0.0 0.00 0.00 0.00 83 1014.4
20260905124046 78 0 0.0 0.0 0.00 0.00 0.00 84 1014.5
20260905123545 77 0 0.0 0.0 0.00 0.00 0.00 86 1014.5
20260905123058 76 0 0.0 0.0 0.00 0.00 0.00 87 1014.3
20260905122547 76 0 0.0 0.0 0.00 0.00 0.00 88 1014.4
20260905122047 75 0 0.0 1.0 0.00 0.00 0.00 90 1014.4
20260905121600 74 0 0.0 1.0 0.00 0.00 0.00 91 1014.5
20260905121046 73 0 0.0 1.0 0.00 0.00 0.00 92 1014.3
20260905120546 73 0 0.0 0.0 0.00 0.00 0.00 94 1014.4
20260905120105 72 0 0.0 0.0 0.00 0.00 0.00 95 1014.4
20260905115548 71 0 0.0 0.0 0.00 0.00 0.00 95 1014.3
20260905115046 71 0 0.0 0.0 0.00 0.00 0.00 96 1014.3
20260905114602 70 0 0.0 0.0 0.00 0.00 0.00 96 1014.2
20260905114045 70 0 0.0 0.0 0.00 0.00 0.00 96 1014.1
20260905113545 69 0 0.0 0.0 0.00 0.00 0.00 96 1014.0
20260905113109 69 0 0.0 0.0 0.00 0.00 0.00 95 1014.0
20260905112546 69 0 0.0 0.0 0.00 0.00 0.00 95 1013.9
20260905112046 69 0 0.0 0.0 0.00 0.00 0.00 95 1013.9
20260905111554 69 0 0.0 0.0 0.00 0.00 0.00 95 1013.7
20260905111046 69 0 0.0 0.0 0.00 0.00 0.00 95 1013.8
20260905110545 69 0 0.0 0.0 0.00 0.00 0.00 95 1013.8
20260905105545 69 0 0.0 0.0 0.00 0.00 0.00 95 1013.7
20260905105049 69 0 0.0 0.0 0.00 0.00 0.00 95 1013.6
20260905104559 69 0 0.0 0.0 0.00 0.00 0.00 95 1013.5
20260905104045 69 0 0.0 0.0 0.00 0.00 0.00 95 1013.5
20260905103546 69 0 0.0 0.0 0.00 0.00 0.00 95 1013.6
20260905103104 69 0 0.0 0.0 0.00 0.00 0.00 95 1013.6
20260905102546 69 0 0.0 0.0 0.00 0.00 0.00 95 1013.5
20260905102046 69 0 0.0 0.0 0.00 0.00 0.00 94 1013.4
20260905101601 70 0 0.0 0.0 0.00 0.00 0.00 94 1013.5
20260905101045 70 0 0.0 0.0 0.00 0.00 0.00 94 1013.4
20260905100546 70 0 0.0 0.0 0.00 0.00 0.00 94 1013.3
20260905095545 70 0 0.0 0.0 0.00 0.00 0.00 94 1013.3
20260905095046 70 0 0.0 0.0 0.00 0.00 0.00 93 1013.4
20260905094553 70 0 0.0 0.0 0.00 0.00 0.00 93 1013.3
20260905094049 70 0 0.0 0.0 0.00 0.00 0.00 93 1013.4
20260905093546 70 0 0.0 0.0 0.00 0.00 0.00 93 1013.2
20260905093109 70 0 0.0 0.0 0.00 0.00 0.00 93 1013.2
20260905092545 71 0 0.0 0.0 0.00 0.00 0.00 93 1013.2
20260905092045 71 0 0.0 0.0 0.00 0.00 0.00 93 1013.3
20260905091603 71 0 0.0 0.0 0.00 0.00 0.00 93 1013.3
20260905091045 71 0 0.0 0.0 0.00 0.00 0.00 93 1013.4
20260905090546 71 0 0.0 0.0 0.00 0.00 0.00 93 1013.4
20260905090055 71 0 0.0 0.0 0.00 0.00 0.00 92 1013.2
20260905085546 71 0 0.0 0.0 0.00 0.00 0.00 92 1013.3
20260905085046 71 0 0.0 0.0 0.00 0.00 0.00 92 1013.3
20260905084603 71 0 0.0 0.0 0.00 0.00 0.00 92 1013.4
20260905084049 72 0 0.0 0.0 0.00 0.00 0.00 91 1013.4
20260905083546 72 0 0.0 0.0 0.00 0.00 0.00 91 1013.6
20260905083104 72 0 0.0 0.0 0.00 0.00 0.00 91 1013.6
20260905082545 72 0 0.0 0.0 0.00 0.00 0.00 90 1013.6
20260905082045 72 0 0.0 0.0 0.00 0.00 0.00 90 1013.7
20260905081603 73 0 0.0 2.0 0.00 0.00 0.00 90 1013.7
20260905081046 73 0 0.0 2.0 0.00 0.00 0.00 89 1013.8
20260905080546 73 0 0.0 2.0 0.00 0.00 0.00 89 1013.8
20260905080056 73 0 0.0 0.0 0.00 0.00 0.00 88 1013.7
20260905075546 73 0 0.0 0.0 0.00 0.00 0.00 87 1013.6
20260905075049 74 0 0.0 0.0 0.00 0.00 0.00 87 1013.6
20260905074608 74 0 0.0 0.0 0.00 0.00 0.00 87 1013.7
20260905074046 74 0 0.0 0.0 0.00 0.00 0.00 87 1013.7
20260905073545 74 0 0.0 0.0 0.00 0.00 0.00 87 1013.6
20260905073105 74 0 0.0 1.0 0.00 0.00 0.00 86 1013.6
20260905072546 75 0 0.0 2.0 0.00 0.00 0.00 86 1013.5
20260905072044 75 303 0.0 3.0 0.00 0.00 0.00 86 1013.6
20260905071607 75 303 1.0 3.0 0.00 0.00 0.00 86 1013.8
20260905071046 75 304 1.0 3.0 0.00 0.00 0.00 85 1013.8
20260905070546 74 320 0.0 2.0 0.00 0.00 0.00 87 1013.9
20260905070100 74 0 0.0 3.0 0.00 0.00 0.00 87 1014.2
20260905065546 74 224 1.0 3.0 0.00 0.00 0.00 88 1014.4
20260905065045 74 147 0.0 2.0 0.00 0.00 0.00 89 1015.0
20260905064605 73 0 0.0 0.0 0.00 0.00 0.00 88 1014.3
20260905064045 73 0 0.0 1.0 0.00 0.00 0.00 89 1014.5
20260905063545 73 0 0.0 1.0 0.00 0.00 0.00 89 1014.8
20260905063107 73 147 0.0 1.0 0.00 0.00 0.00 89 1014.9
20260905062545 73 0 0.0 0.0 0.00 0.00 0.00 89 1014.9
20260905062045 73 0 0.0 0.0 0.00 0.00 0.00 89 1015.1
20260905061614 73 0 0.0 0.0 0.00 0.00 0.00 89 1014.9
20260905061045 73 0 0.0 0.0 0.00 0.00 0.00 90 1014.8
20260905060546 73 0 0.0 0.0 0.00 0.00 0.00 89 1015.2
20260905060100 73 0 0.0 0.0 0.00 0.00 0.00 89 1015.2
20260905055546 73 0 0.0 0.0 0.00 0.00 0.00 89 1015.3
20260905055049 72 0 0.0 0.0 0.00 0.00 0.00 90 1015.5
20260905054555 72 0 0.0 0.0 0.00 0.00 0.00 89 1015.7
20260905054047 72 0 0.0 0.0 0.00 0.00 0.00 89 1015.5
20260905053545 72 0 0.0 0.0 0.00 0.00 0.00 89 1015.6
20260905053104 73 0 0.0 0.0 0.00 0.00 0.00 89 1015.6
20260905052545 73 0 0.0 0.0 0.00 0.00 0.00 89 1015.6
20260905052045 72 0 0.0 0.0 0.00 0.00 0.00 89 1015.8
20260905051604 72 0 0.0 0.0 0.00 0.00 0.00 89 1015.7
20260905051045 72 0 0.0 0.0 0.00 0.00 0.00 88 1015.6
20260905050546 72 0 0.0 0.0 0.00 0.00 0.00 88 1015.7
20260905045545 72 0 0.0 0.0 0.00 0.00 0.00 89 1015.9
20260905045046 72 0 0.0 0.0 0.00 0.00 0.00 88 1016.0
20260905044607 72 0 0.0 0.0 0.00 0.00 0.00 88 1016.0
20260905044046 72 0 0.0 0.0 0.00 0.00 0.00 88 1016.1
20260905043545 72 0 0.0 0.0 0.00 0.00 0.00 88 1016.1
20260905043103 73 0 0.0 0.0 0.00 0.00 0.00 88 1016.1
20260905042545 73 0 0.0 0.0 0.00 0.00 0.00 88 1016.0
20260905042045 73 0 0.0 0.0 0.00 0.00 0.00 88 1016.1
20260905041613 73 0 0.0 0.0 0.00 0.00 0.00 88 1015.9
20260905041046 73 0 0.0 0.0 0.00 0.00 0.00 88 1016.1
20260905040546 72 0 0.0 0.0 0.00 0.00 0.00 88 1015.9
20260905040101 72 0 0.0 0.0 0.00 0.00 0.00 89 1015.9
20260905035546 72 0 0.0 0.0 0.00 0.00 0.00 88 1015.8
20260905035046 72 0 0.0 0.0 0.00 0.00 0.00 88 1015.8
20260905034606 72 0 0.0 0.0 0.00 0.00 0.00 88 1015.7
20260905034046 72 0 0.0 0.0 0.00 0.00 0.00 88 1015.6
20260905033549 72 0 0.0 0.0 0.00 0.00 0.00 88 1015.5
20260905033108 72 0 0.0 0.0 0.00 0.00 0.00 88 1015.4
20260905032547 72 0 0.0 0.0 0.00 0.00 0.00 88 1015.3
20260905032046 72 0 0.0 0.0 0.00 0.00 0.00 88 1015.4
20260905031601 73 0 0.0 0.0 0.00 0.00 0.00 88 1015.4
20260905031045 73 0 0.0 0.0 0.00 0.00 0.00 87 1015.4
20260905030546 73 0 0.0 0.0 0.00 0.00 0.00 87 1015.4
20260905030110 73 0 0.0 0.0 0.00 0.00 0.00 87 1015.2
20260905025546 73 0 0.0 0.0 0.00 0.00 0.00 86 1015.1
20260905025045 73 0 0.0 0.0 0.00 0.00 0.00 86 1015.2
20260905024605 73 0 0.0 0.0 0.00 0.00 0.00 86 1015.3
20260905024045 73 0 0.0 0.0 0.00 0.00 0.00 85 1015.3
20260905023547 73 0 0.0 0.0 0.00 0.00 0.00 85 1015.3
20260905023105 74 0 0.0 0.0 0.00 0.00 0.00 85 1015.3
20260905022545 74 0 0.0 0.0 0.00 0.00 0.00 85 1015.4
20260905022045 74 0 0.0 0.0 0.00 0.00 0.00 85 1015.3
20260905021608 74 0 0.0 0.0 0.00 0.00 0.00 84 1015.3
20260905021045 74 0 0.0 0.0 0.00 0.00 0.00 84 1015.4
20260905020545 74 0 0.0 0.0 0.00 0.00 0.00 83 1015.4
20260905020111 74 0 0.0 0.0 0.00 0.00 0.00 83 1015.2
20260905015545 74 0 0.0 0.0 0.00 0.00 0.00 84 1015.1
20260905015048 74 0 0.0 0.0 0.00 0.00 0.00 84 1015.0
20260905014603 74 0 0.0 0.0 0.00 0.00 0.00 83 1014.9
20260905014046 75 0 0.0 0.0 0.00 0.00 0.00 83 1014.7
20260905013549 75 0 0.0 0.0 0.00 0.00 0.00 83 1014.6
20260905013111 74 0 0.0 0.0 0.00 0.00 0.00 83 1014.7
20260905012546 75 0 0.0 0.0 0.00 0.00 0.00 83 1014.7
20260905012046 75 0 0.0 0.0 0.00 0.00 0.00 83 1014.7
20260905011632 75 0 0.0 0.0 0.00 0.00 0.00 82 1014.8
20260905011045 75 0 0.0 0.0 0.00 0.00 0.00 82 1014.9
20260905010546 75 0 0.0 0.0 0.00 0.00 0.00 81 1014.6
20260905010105 76 0 0.0 0.0 0.00 0.00 0.00 81 1014.6
20260905005547 76 0 0.0 0.0 0.00 0.00 0.00 81 1014.6
20260905005047 76 0 0.0 0.0 0.00 0.00 0.00 80 1014.7
20260905004607 76 0 0.0 0.0 0.00 0.00 0.00 80 1014.7
20260905004046 76 0 0.0 0.0 0.00 0.00 0.00 79 1014.9
20260905003546 77 0 0.0 0.0 0.00 0.00 0.00 79 1014.9
20260905003112 77 0 0.0 0.0 0.00 0.00 0.00 78 1015.0
20260905002545 77 0 0.0 0.0 0.00 0.00 0.00 78 1015.1
20260905002045 77 0 0.0 0.0 0.00 0.00 0.00 77 1015.1
20260905001603 78 0 0.0 0.0 0.00 0.00 0.00 77 1015.3
20260905001047 78 0 0.0 0.0 0.00 0.00 0.00 76 1015.4
20260905000546 78 0 0.0 1.0 0.00 0.00 0.00 76 1015.5
20260905000059 78 0 0.0 3.0 0.00 0.00 0.00 75 1015.6
20260904235546 78 0 1.0 3.0 0.00 0.00 0.00 75 1016.0
20260904235049 79 0 1.0 10.0 0.00 0.00 0.00 74 1016.2
20260904234611 79 191 2.0 10.0 0.00 0.00 0.00 72 1015.9
20260904234046 79 284 3.0 12.0 0.00 0.00 0.00 70 1015.8
20260904233546 80 294 3.0 12.0 0.00 0.00 0.00 67 1016.0
20260904233104 81 125 2.0 11.0 0.00 0.00 0.00 65 1016.1
20260904232546 81 0 0.0 4.0 0.00 0.00 0.00 64 1015.6
20260904232046 82 0 0.0 6.0 0.00 0.00 0.00 64 1015.2
20260904231604 82 269 1.0 6.0 0.00 0.00 0.00 63 1015.2
20260904231046 83 289 1.0 9.0 0.00 0.00 0.00 63 1015.2
20260904230546 83 0 2.0 9.0 0.00 0.00 0.00 63 1015.3
20260904225546 84 313 1.0 9.0 0.00 0.00 0.00 64 1015.5
20260904225048 85 234 1.0 11.0 0.00 0.00 0.00 65 1015.4
20260904224555 86 173 3.0 11.0 0.00 0.00 0.00 63 1015.4
20260904224046 88 182 3.0 9.0 0.00 0.00 0.00 61 1015.3
20260904223546 90 0 3.0 7.0 0.00 0.00 0.00 58 1015.2
20260904223056 92 179 0.0 3.0 0.00 0.00 0.00 60 1015.2
20260904222550 92 208 0.0 4.0 0.00 0.00 0.00 59 1015.0
20260904222050 92 117 1.0 6.0 0.00 0.00 0.00 58 1014.9
20260904221554 92 101 1.0 6.0 0.00 0.00 0.00 58 1014.7
20260904221046 92 111 1.0 6.0 0.00 0.00 0.00 60 1014.9
20260904220546 92 0 0.0 0.0 0.00 0.00 0.00 61 1014.7
20260904220109 91 0 0.0 3.0 0.00 0.00 0.00 62 1014.4
20260904215546 91 0 0.0 3.0 0.00 0.00 0.00 60 1014.2
20260904215049 91 76 0.0 3.0 0.00 0.00 0.00 60 1014.1
20260904214606 91 84 1.0 3.0 0.00 0.00 0.00 60 1014.1
20260904214046 91 107 0.0 3.0 0.00 0.00 0.00 60 1014.0
20260904213546 92 61 1.0 3.0 0.00 0.00 0.00 59 1014.0
20260904213109 92 0 0.0 3.0 0.00 0.00 0.00 59 1014.1
20260904212545 92 93 0.0 3.0 0.00 0.00 0.00 58 1014.2
20260904212045 93 0 0.0 0.0 0.00 0.00 0.00 58 1014.3
20260904211603 93 0 0.0 1.0 0.00 0.00 0.00 57 1014.3
20260904211046 93 0 0.0 4.0 0.00 0.00 0.00 57 1014.4
20260904210546 94 0 0.0 4.0 0.00 0.00 0.00 52 1014.6
20260904210052 95 331 0.0 3.0 0.00 0.00 0.00 50 1014.4
20260904205547 96 0 1.0 5.0 0.00 0.00 0.00 50 1014.2
20260904205046 96 105 2.0 7.0 0.00 0.00 0.00 48 1014.2
20260904204601 97 110 3.0 9.0 0.00 0.00 0.00 49 1014.2
20260904204048 97 71 2.0 9.0 0.00 0.00 0.00 47 1014.2
20260904203546 97 23 3.0 9.0 0.00 0.00 0.00 48 1014.1
20260904203057 97 0 1.0 7.0 0.00 0.00 0.00 49 1014.0
20260904202547 97 108 2.0 7.0 0.00 0.00 0.00 48 1014.0
20260904202045 97 167 3.0 5.0 0.00 0.00 0.00 47 1014.0
20260904201555 97 88 0.0 4.0 0.00 0.00 0.00 48 1014.1
20260904201046 97 107 2.0 4.0 0.00 0.00 0.00 47 1014.2
20260904200546 98 30 1.0 10.0 0.00 0.00 0.00 47 1014.2
20260904200108 97 115 1.0 10.0 0.00 0.00 0.00 48 1014.3
20260904195546 97 163 3.0 10.0 0.00 0.00 0.00 49 1014.5
20260904195049 97 130 1.0 7.0 0.00 0.00 0.00 49 1014.5
20260904194631 97 46 1.0 6.0 0.00 0.00 0.00 49 1014.6
20260904194046 96 109 2.0 5.0 0.00 0.00 0.00 49 1014.6
20260904193546 96 45 2.0 5.0 0.00 0.00 0.00 49 1014.6
20260904193107 97 0 2.0 6.0 0.00 0.00 0.00 48 1015.0
20260904192549 97 150 2.0 6.0 0.00 0.00 0.00 50 1015.2
20260904192045 97 63 2.0 6.0 0.00 0.00 0.00 51 1015.3
20260904191603 96 194 1.0 4.0 0.00 0.00 0.00 49 1015.3